Resultados

800 Electronico
Fecha Serie Viento Presión Humedad Temperatura
16-09-2018 Final_A
Puesto Andanivel Nombre Dia Mes Año Pais Marca
01 Alegre Diego Facundo 7 9 2000 CTSC - 1.54.78 -
02 Gauna Brian Miguel 15 2 1994 JMCOR FMARP 1.55.01 -
03 Zavala Walter Hernan 28 1 1988 AAMTE - 1.55.13 -
04 Mendivil Estanislao 20 10 2000 QUIRO - 1.55.28 -
05 Larroza Nahuel 18 5 1998 AAMTE - 1.57.08 -
06 Alvarez Emanuel Alejandro 8 12 2000 GCU - 1.58.34 -
07 Fernandez Agustin Javier 26 10 2001 FTTAF - 2.00.09 -
08 Velazquez Conrado Jonas 4 6 1991 EBFAM - 2.00.12 -
09 Franco Miranda Gabriel 24 2 1995 CRCBA - 2.00.28 -
10 Paineo Emilio 3 2 1999 UAJGR - 2.00.69 -
11 Perez Fabian Enzo 28 12 1994 AAY - 2.00.75 -
12 Romero Matias 24 11 2001 JMCOR FMARP 2.00.90 -
13 Coronel Cristian 18 2 1997 CTSC - 2.01.25 -
14 Brian Alan Sasso 23 4 2000 MFV - 2.01.27 -
15 Kucher Hernan 24 4 1993 LFA - 2.01.32 -
16 Lucas Guillermo 1 10 2000 MMFAM - 2.02.36 -
17 Salguero Fernando 10 5 1993 PGARI 2.02.57 -
18 Cordoba Joaquin 19 11 2001 JMCOR FMARP 2.03.07 -
19 Montiel Isaac 23 9 1999 UAJGR - 2.03.47 -
20 Meza Juarez Ezequiel 15 6 2001 CADAF - 2.03.88 -
21 Cristian Ramos 4 6 1999 MES - 2.04.09 -
22 Gomez Alcides 9 2 1981 FTTAF - 2.04.15 -
23 Martinez Cereijo Nicolas 11 12 1998 GEFAM - 2.04.22 -
24 Mamblona Thiago 7 3 2001 EMA - 2.05.70 -
25 Ceccarossi Giuliano 6 6 2000 VYR ASA 2.05.73 -
26 Cardozo Francisco 15 5 1993 EMA - 2.06.18 -
27 Carrera Alan Gaston 8 7 1999 JMCOR FMARP 2.06.42 -
28 Cilenti Kevin Maximiliano 6 10 1992 CASLA - 2.06.76 -
29 Furno Ivan 16 6 1997 FCMAX - 2.06.88 -
30 Rodriguez Matias 23 12 1997 LFA - 2.06.90 -
31 Roblin Jeff 5 5 1993 AAPCH - 2.06.91 -
32 Marcos Alanis 6 3 1993 FTTAF - 2.07.46 -
33 Jharet Jesus Guarderes Ruiz 21 1 2001 LCFAM - 2.07.93 -
34 Arroyo Santiago 10 1 1998 UAJGR - 2.08.24 -
35 Balda Santiago 19 4 2000 EMCDC - 2.08.32 -
36 Perotti Ariel Esteban 26 5 1995 CACHI - 2.09.15 -
37 Niño Jorge Andres 11 2 1989 CSESL - 2.10.02 -
38 Jeremias Villalba 16 12 1995 EMA - 2.10.90 -
39 Gonzalez Maffeo Maximiliano 24 6 1990 AAY - 2.10.99 -
40 Monzon Mario Juan Jesus 7 6 1984 FTTAF - 2.11.13 -
41 Garcia Mauro 25 8 1967 FTTAF - 2.14.91 -
42 Servin Jorge Luis 26 5 1984 LFA - 2.15.37 -
43 Rampulla Angel Francesco 4 7 1998 LISAL - 2.15.55 -
44 Crego Franco Nahuel 17 11 1995 LCFAM - 2.15.92 -
45 Sosa Diego Orlando 4 1 1987 AAMTE - 2.16.79 -
46 Diaz Lautaro 2 9 1999 MUAVE - 2.17.03 -
47 Giuliani Agustin 12 7 1999 MLFAM - 2.17.43 -
48 Lema Lautaro Augusto 25 9 1990 MUAVE - 2.17.81 -
49 arce fernando 10 9 1980 AAPCH - 2.18.08 -
50 Blanco Octavio 3 12 2001 MUAVE - 2.21.02 -
51 Rodriguez Gonzalez Pedro Edgardo 7 9 1968 CARPF - 2.21.85 -
52 Pablo Kalhofer 17 4 1976 LFA - 2.22.44 -
53 Alvarez Juan Jose 26 7 1996 AAMTE - 2.22.85 -
54 Montiveros Eliel 25 1 2001 MLFAM - 2.27.16 -
55 Aguero Carabajal Agustin 17 6 2000 PGARI - 2.27.33 -
56 Rodriguez Arceri Facundo Matias 18 8 1988 LFA - 2.45.20 -
99 Reyes Gabriel 28 6 1991 LCFAM - DNF
99 Moyano Rodrigo Alejandro 24 8 2000 MDLDZ - DNS
99 Reyes Martin Damian 17 4 1985 LFA - DNS
99 Scavino Ivan 7 12 1998 AAGAB - DNS
99 Ferreyra Joaquin 26 6 2000 CMDB1 - DNS
99 Molina Lucas 17 12 1995 CADAF - DNS